Location: Olomouc
(49.5830°N, 17.2500°E)
Time: 21:22:37
(UTC+02:00)

ISS - Pass Details

Date: 14 May 2021
Orbit: 417 x 422 km, 51.6° (Epoch: 14 June)

Event Time Altitude Azimuth Distance (km) Brightness Sun altitude
Exits shadow 01:17:34 40° 299° (WNW) 641 -2.8 -21.5°
Maximum altitude 01:18:32 59° 357° (N) 494 -3.2 -21.4°
Drops below altitude 10° 01:21:53 10° 78° (ENE) 1,508 -0.7 -21.4°
Sets 01:24:00 0° 83° (E) 2,374 0.3 -21.3°
